Hourly Weather Cedry

Today, 13 June, Sunday

Time Temperature Precipitation Wind Pressure Humidity
00:00 +10°C° 0 mm 5 mps 740 mmHg 90%
01:00 +9°C° 0 mm 5 mps 740 mmHg 89%
02:00 +9°C° 0 mm 5 mps 740 mmHg 90%
03:00 +8°C° 0 mm 6 mps 740 mmHg 91%
04:00 +8°C° 0 mm 6 mps 740 mmHg 92%
05:00 +9°C° 0.1 mm 6 mps 740 mmHg 91%
06:00 +10°C° 0.1 mm 7 mps 740 mmHg 89%
07:00 +11°C° 0 mm 7 mps 741 mmHg 88%
08:00 +12°C° 0.6 mm 7 mps 741 mmHg 88%
09:00 +12°C° 0.6 mm 8 mps 742 mmHg 88%
10:00 +13°C° 0.6 mm 8 mps 742 mmHg 89%
11:00 +15°C° 0.4 mm 8 mps 742 mmHg 82%
12:00 +16°C° 0.4 mm 8 mps 743 mmHg 75%
13:00 +17°C° 0.4 mm 9 mps 743 mmHg 68%
14:00 +17°C° 0.1 mm 9 mps 744 mmHg 67%
15:00 +17°C° 0.1 mm 8 mps 744 mmHg 67%
16:00 +17°C° 0.1 mm 8 mps 745 mmHg 66%
17:00 +16°C° 0 mm 8 mps 745 mmHg 67%
18:00 +15°C° 0 mm 7 mps 746 mmHg 68%
19:00 +14°C° 0 mm 7 mps 746 mmHg 69%
20:00 +11°C° 0 mm 6 mps 746 mmHg 73%
21:00 +10°C° 0 mm 6 mps 747 mmHg 76%
22:00 +9°C° 0 mm 5 mps 747 mmHg 79%
23:00 +9°C° 0 mm 5 mps 748 mmHg 81%

Tomorrow, 14 June, Monday

Time Temperature Precipitation Wind Pressure Humidity
00:00 +8°C° 0 mm 5 mps 748 mmHg 84%
01:00 +7°C° 0 mm 4 mps 748 mmHg 86%
02:00 +7°C° 0 mm 4 mps 748 mmHg 87%
03:00 +6°C° 0 mm 4 mps 748 mmHg 89%
04:00 +7°C° 0 mm 3 mps 749 mmHg 90%
05:00 +8°C° 0 mm 4 mps 749 mmHg 81%
06:00 +11°C° 0 mm 4 mps 749 mmHg 72%
07:00 +12°C° 0 mm 4 mps 749 mmHg 62%
08:00 +14°C° 0 mm 4 mps 749 mmHg 58%
09:00 +15°C° 0 mm 4 mps 749 mmHg 53%
10:00 +18°C° 0 mm 4 mps 749 mmHg 49%
11:00 +19°C° 0 mm 4 mps 749 mmHg 47%
12:00 +19°C° 0 mm 4 mps 749 mmHg 46%
13:00 +20°C° 0 mm 3 mps 749 mmHg 44%
14:00 +20°C° 0 mm 3 mps 749 mmHg 45%
15:00 +20°C° 0 mm 3 mps 748 mmHg 46%
16:00 +20°C° 0 mm 2 mps 748 mmHg 46%
17:00 +19°C° 0 mm 2 mps 748 mmHg 54%
18:00 +18°C° 0 mm 2 mps 748 mmHg 62%
19:00 +16°C° 0 mm 1 mps 748 mmHg 69%
20:00 +15°C° 0 mm 1 mps 748 mmHg 72%
21:00 +14°C° 0 mm 1 mps 748 mmHg 74%
22:00 +12°C° 0 mm 1 mps 748 mmHg 76%
23:00 +12°C° 0 mm 1 mps 748 mmHg 76%

Day after tomorrow, 15 June, Tuesday

Time Temperature Precipitation Wind Pressure Humidity
00:00 +12°C° 0 mm 2 mps 747 mmHg 77%
01:00 +10°C° 0 mm 2 mps 747 mmHg 78%
02:00 +12°C° 0 mm 2 mps 747 mmHg 82%
03:00 +12°C° 0 mm 2 mps 747 mmHg 85%
04:00 +12°C° 0 mm 2 mps 747 mmHg 88%
05:00 +13°C° 0 mm 3 mps 747 mmHg 84%
06:00 +16°C° 0 mm 3 mps 747 mmHg 79%
07:00 +18°C° 0 mm 3 mps 747 mmHg 74%
08:00 +19°C° 0 mm 4 mps 747 mmHg 71%
09:00 +20°C° 0 mm 4 mps 747 mmHg 69%
10:00 +21°C° 0 mm 4 mps 747 mmHg 66%
11:00 +21°C° 0 mm 4 mps 747 mmHg 65%
12:00 +21°C° 0 mm 4 mps 747 mmHg 65%
13:00 +22°C° 0 mm 4 mps 746 mmHg 64%
14:00 +21°C° 0.3 mm 4 mps 746 mmHg 71%
15:00 +20°C° 0.3 mm 4 mps 746 mmHg 78%
16:00 +19°C° 0.3 mm 4 mps 746 mmHg 85%
17:00 +18°C° 0.1 mm 3 mps 746 mmHg 88%
18:00 +17°C° 0.1 mm 3 mps 747 mmHg 90%
19:00 +16°C° 0.1 mm 3 mps 747 mmHg 92%
20:00 +14°C° 0 mm 3 mps 747 mmHg 92%
21:00 +13°C° 0 mm 3 mps 747 mmHg 91%
22:00 +11°C° 0 mm 3 mps 748 mmHg 90%
23:00 +10°C° 0 mm 3 mps 748 mmHg 91%

16 June, Wednesday

Time Temperature Precipitation Wind Pressure Humidity
00:00 +9°C° 0 mm 3 mps 748 mmHg 92%
01:00 +8°C° 0 mm 2 mps 748 mmHg 93%
02:00 +8°C° 0 mm 2 mps 748 mmHg 93%
03:00 +7°C° 0 mm 2 mps 748 mmHg 92%
04:00 +7°C° 0 mm 2 mps 748 mmHg 92%
05:00 +9°C° 0 mm 2 mps 749 mmHg 85%
06:00 +12°C° 0 mm 2 mps 749 mmHg 79%
07:00 +14°C° 0 mm 2 mps 749 mmHg 72%
08:00 +16°C° 0 mm 2 mps 750 mmHg 66%
09:00 +17°C° 0 mm 2 mps 750 mmHg 60%
10:00 +19°C° 0 mm 2 mps 750 mmHg 54%
11:00 +20°C° 0 mm 2 mps 750 mmHg 52%
12:00 +20°C° 0 mm 2 mps 750 mmHg 51%
13:00 +21°C° 0 mm 2 mps 750 mmHg 49%
14:00 +21°C° 0 mm 3 mps 750 mmHg 50%
15:00 +21°C° 0 mm 3 mps 750 mmHg 51%
16:00 +21°C° 0 mm 3 mps 750 mmHg 51%
17:00 +20°C° 0 mm 3 mps 749 mmHg 59%
18:00 +19°C° 0 mm 2 mps 749 mmHg 67%
19:00 +17°C° 0 mm 2 mps 749 mmHg 75%
20:00 +16°C° 0 mm 2 mps 750 mmHg 78%
21:00 +14°C° 0 mm 2 mps 750 mmHg 81%
22:00 +13°C° 0 mm 2 mps 750 mmHg 83%
23:00 +13°C° 0 mm 2 mps 750 mmHg 84%

17 June, Thursday

Time Temperature Precipitation Wind Pressure Humidity
00:00 +12°C° 0 mm 2 mps 750 mmHg 85%
01:00 +10°C° 0 mm 2 mps 751 mmHg 87%
02:00 +10°C° 0 mm 2 mps 751 mmHg 87%
03:00 +10°C° 0 mm 2 mps 751 mmHg 87%
04:00 +10°C° 0 mm 2 mps 751 mmHg 87%
05:00 +13°C° 0 mm 2 mps 751 mmHg 81%
06:00 +15°C° 0 mm 2 mps 751 mmHg 75%
07:00 +17°C° 0 mm 2 mps 751 mmHg 69%
08:00 +19°C° 0 mm 3 mps 751 mmHg 65%
09:00 +20°C° 0 mm 3 mps 751 mmHg 60%
10:00 +22°C° 0 mm 3 mps 751 mmHg 55%
11:00 +24°C° 0 mm 3 mps 751 mmHg 52%
12:00 +24°C° 0 mm 3 mps 751 mmHg 50%
13:00 +25°C° 0 mm 4 mps 751 mmHg 47%
14:00 +25°C° 0 mm 3 mps 751 mmHg 49%
15:00 +25°C° 0 mm 3 mps 750 mmHg 51%
16:00 +25°C° 0 mm 3 mps 750 mmHg 53%
17:00 +24°C° 0 mm 3 mps 750 mmHg 61%
18:00 +21°C° 0 mm 3 mps 750 mmHg 69%
19:00 +20°C° 0 mm 3 mps 750 mmHg 76%
20:00 +19°C° 0 mm 3 mps 750 mmHg 80%
21:00 +17°C° 0 mm 3 mps 750 mmHg 83%
22:00 +16°C° 0 mm 3 mps 750 mmHg 86%
23:00 +16°C° 0 mm 3 mps 750 mmHg 88%

18 June, Friday

Time Temperature Precipitation Wind Pressure Humidity
00:00 +14°C° 0 mm 3 mps 750 mmHg 90%
01:00 +14°C° 0 mm 3 mps 750 mmHg 92%
02:00 +14°C° 0 mm 3 mps 750 mmHg 92%
03:00 +14°C° 0 mm 3 mps 750 mmHg 92%
04:00 +14°C° 0 mm 3 mps 750 mmHg 92%
05:00 +17°C° 0 mm 3 mps 750 mmHg 86%
06:00 +19°C° 0 mm 4 mps 751 mmHg 81%
07:00 +21°C° 0 mm 4 mps 751 mmHg 75%
08:00 +22°C° 0 mm 4 mps 751 mmHg 71%
09:00 +23°C° 0 mm 4 mps 750 mmHg 67%
10:00 +26°C° 0 mm 5 mps 750 mmHg 63%
11:00 +26°C° 0 mm 5 mps 750 mmHg 60%
12:00 +27°C° 0 mm 5 mps 750 mmHg 58%
13:00 +28°C° 0 mm 5 mps 750 mmHg 55%
14:00 +27°C° 0 mm 5 mps 750 mmHg 56%
15:00 +27°C° 0 mm 5 mps 750 mmHg 57%
16:00 +27°C° 0 mm 5 mps 750 mmHg 58%
17:00 +25°C° 0 mm 4 mps 749 mmHg 64%
18:00 +22°C° 0 mm 4 mps 749 mmHg 71%
19:00 +21°C° 0 mm 4 mps 749 mmHg 77%
20:00 +20°C° 0 mm 3 mps 749 mmHg 81%
21:00 +18°C° 0 mm 3 mps 749 mmHg 84%
22:00 +17°C° 0 mm 3 mps 750 mmHg 88%
23:00 +16°C° 0 mm 3 mps 750 mmHg 89%
Show more

We Need Your Consent

Meteoprog and our Service Providers may store and access personal data such as cookies, device identifiers or other similar technologies on your device and process such data to personalise content and ads, as well as provide social media features and to analyse the traffic.

  • Store and/or access information on your device

    Cookies, device identifiers or other information can be stored or accessed on your device for the purposes indicated above.

  • Personalised ads and content, ad and content measurement, audience insights, and products development

    Ads and content can be personalised based on a profile. More data can be added to better personalise ads and content. Ad and content performance can be measured. Insights about the audience who saw the ads and content can be derived. Such data can be used to develop or improve user’s experience, systems and software.

By clicking ‘I Agree’ you will allow the use of indicated cookies, device identifiers, web beacons or other similar technologies. Your settings can be changed in the browser on your device.

For certain purposes, legitimate interests may be relied on, rather than consent. You can read more about this in our Privacy and Cookie Policy.